www.pogodaiklimat.ru

Погода и климат >> Архив погоды >> Россия >> Пермский край >> Кын


ПОГОДА в Кыне

  • Прогноз погоды в Кыне
  • Монитор погоды в Кыне

АРХИВ ПОГОДЫ в Кыне

Время (UTC), дата Ветер
(напр.,м/с)
 
Видим.   Явления Облачность Т
(С)
Тd
(С)
f
(%)
Тe
(С)
Тes
(С)
Комфортность P
(гПа)
Po
(гПа)
Тmin
(С)
Tmax
(С)
R
(мм)
R24
(мм)
S
(см)
18 14.09 ЮЗ 3 50 км 3/0
[Ci fib]
+14.2 +9.2 72 +13 +13 1011.6 982.8
21 14.09 ЮЗ 3 50 км 3/0
[Ci fib]
+13.5 +8.9 74 +12 +12 1010.6 981.7
00 15.09 ЮЗ 1 50 км 8/0 2000 м
[Ac cast Ci fib]
+9.7 +8.1 90 +9 +9 1009.9 980.6
03 15.09 В 1 50 км 10/0 2000 м
[Ac cast Ci]
+9.4 +8.3 93 +9 +9 1009.3 980.0 +8.4
06 15.09 ЮЗ 4 50 км 10/10 600 м
[Sc]
+14.8 +7.3 61 +14 +14 1008.1 979.4
09 15.09 ЮЗ 4 50 км 9/0 2000 м
[Ac trans Ci sp]
+17.4 +8.2 55 +17 +20 1006.8 978.4
12 15.09 ЮЗ 3
{14}
20 км слаб. ливневой дождь 10/5 600 м
[Cb cap As op]
+12.6 +10.5 87 +11 +11 1007.8 978.9
15 15.09 ЮЗ 3 50 км {ливн. осадки} 10/4 600 м
[Sc diur, vesp Ac As]
+12.0 +9.6 85 +10 +10 1007.3 978.3 +18.0 0.5
18 15.09 ЮЗ 2 50 км {ливн. осадки} 10/4 600 м
[Sc As trans]
+10.3 +9.0 92 +9 +9 1007.6 978.5
21 15.09 ЮЗ 2 50 км 9/3 600 м
[Sc Ac trans]
+8.5 +7.4 93 +7 +7 1007.4 978.1
00 16.09 ЮЗ 2 50 км 10/8 600 м
[Sc As trans]
+7.5 +6.6 94 +5 +5 1006.8 977.4
03 16.09 ЮЗ 2 50 км туман на расстоянии 4/3 600 м
[Sc Ac As]
+6.8 +5.9 94 +4 +5 1006.7 977.2 +6.8 0.3
06 16.09 ЮЗ 3 50 км 6/4 600 м
[Cu hum Ac cast]
+11.1 +7.2 77 +9 +11 1005.5 976.5 +6.5
09 16.09 З 3 50 км {ливн. осадки} [макс. диам. градин 6 мм] 9/6 600 м
[Cb cap Ci]
+12.1 +5.9 66 +11 +12 1004.0 975.1
12 16.09 Ю 6
{11}
50 км в посл. час ливневой дождь 9/5 600 м
[Cb cap Ac cast Ci]
+11.3 +4.1 61 +9 +9 1002.7 973.7
15 16.09 Ю 2 50 км 8/8 600 м
[Cb cap]
+8.0 +3.6 74 +6 +6 1002.0 972.8 +13.2 2
18 16.09 Ю 4 10 км слаб. ливневой дождь 10/10 600 м
[Cb cap]
+7.8 +5.9 88 +4 +4 1000.8 971.6
21 16.09 Ю 3 10 км слаб. дождь 10/10 600 м
[Sc]
+7.2 +6.1 93 +4 +4 997.8 968.6
00 17.09 Ю 3 10 км слаб. дождь 10/0 300 м
[As op]
+7.4 +6.4 93 +4 +4 996.1 967.0
03 17.09 ЮЗ 2 50 км в посл. час дождь 10/0 300 м
[As op]
+7.9 +7.0 94 +6 +6 996.1 957.1 +7.2 2
06 17.09 ЮЗ 3 50 км {дождь} 10/10 600 м
[Sc diur, vesp]
+10.1 +7.8 86 +8 +8 997.2 968.3
09 17.09 ЮЗ 4 50 км в посл. час ливневой дождь 10/10 600 м
[Cb cap]
+10.9 +7.9 82 +8 +8 998.1 969.3
12 17.09 ЮЗ 3
{10}
50 км {ливн. осадки} 10/10 600 м
[Sc]
+11.9 +7.5 74 +10 +10 998.5 969.8
15 17.09 Ю 2 50 км 3/3 600 м
[Sc]
+9.0 +6.7 85 +7 +7 999.1 970.1 +12.4 0.8
18 17.09 ЮЗ 2
{11}
10 км слаб. ливневой дождь 10/10 300 м
[Cb cap]
+8.9 +7.7 92 +7 +7 999.1 970.1
21 17.09 ЮЗ 1 50 км {ливн. осадки} 10/3 600 м
[Cu hum Ac cast]
+7.7 +6.8 94 +7 +7 998.3 969.2
00 18.09 Ю 2 50 км в посл. час ливневой дождь 10/6 600 м
[Cb cap Ac cast]
+7.8 +6.8 93 +6 +6 998.0 968.9
03 18.09 ЮЗ 2 50 км туман на расстоянии 8/6 600 м
[Cu Sc Ac cast]
+7.3 +6.5 95 +5 +5 998.6 969.4 +6.6 5
06 18.09 Ю 4 50 км 8/6 600 м
[Cu med, cong Ac trans]
+11.9 +8.4 79 +10 +11 998.3 969.6
09 18.09 ЮЗ 3
{11}
50 км в посл. час ливневой дождь 8/8 600 м
[Cb cap]
+11.6 +6.3 70 +10 +11 998.5 969.8
12 18.09 З 4
{11}
50 км {ливн. осадки} 10/4 600 м
[Cu hum Ci fib]
+13.2 +4.9 57 +12 +12 998.9 970.3
15 18.09 ЮЗ 1 50 км 5/3 600 м
[Sc Ac trans Ci fib]
+8.0 +5.3 83 +7 +7 1000.1 970.9 +13.8
18 18.09 ЮЗ 2 50 км 9/9 600 м
[Sc]
+5.9 +4.9 93 +3 +3 1000.8 971.4
21 18.09 ЮЗ 2 50 км 10/10 600 м
[Sc]
+6.3 +5.3 93 +4 +4 1000.7 971.3
00 19.09 штиль 0 50 км слаб. дождь 10/10 600 м
[Sc]
+4.0 +3.3 95 +3 +3 999.3 969.8
03 19.09 СВ 1 200 м туман н/о +3.6 +3.2 97 +2 +2 998.0 968.4 +2.3 2
06 19.09 СВ 3 50 км туман на расстоянии 10/0 2000 м
[As trans]
+6.9 +6.3 96 +4 +5 993.4 964.4
09 19.09 СВ 3 10 км слаб. дождь 10/0 300 м
[As op]
+7.5 +6.6 94 +4 +5 989.7 960.9
12 19.09 СВ 4
{10}
10 км слаб. дождь 10/0 300 м
[As op]
+6.4 +5.0 91 +3 +3 989.1 960.0
15 19.09 З 3 50 км {дождь} 10/4 600 м
[Sc As trans]
+6.2 +5.1 93 +3 +3 992.5 963.4 +7.5 12
18 19.09 З 3 50 км {дождь} 9/4 600 м
[Sc Ac trans]
+5.6 +4.5 93 +2 +2 997.2 967.8
21 19.09 З 3 10 км слаб. дождь 10/10 600 м
[Sc]
+6.7 +5.5 92 +4 +4 999.6 970.4
00 20.09 З 3 50 км {дождь} 10/10 600 м
[Sc]
+5.6 +3.4 86 +2 +2 1003.0 973.5
03 20.09 З 2 50 км 9/8 600 м
[Sc Ac lent]
+4.2 +2.6 89 +1 +1 1005.6 975.9 +3.5 0.3
06 20.09 З 5 50 км 9/9 600 м
[Cu med, cong]
+5.6 +1.4 74 +1 +2 1008.2 978.5
09 20.09 З 4 50 км 9/8 600 м
[Cu Sc Ac As]
+7.0 +1.4 68 +4 +4 1009.9 980.3
12 20.09 СЗ 4 50 км 8/4 600 м
[Cu Sc Ac trans]
+7.8 -0.1 57 +5 +5 1011.1 981.5
15 20.09 ЮЗ 1 50 км 6/6 600 м
[Sc diur, vesp]
+3.3 +0.9 84 +2 +2 1013.0 982.9 +8.5
18 20.09 ЮЗ 1 50 км 3/3 600 м
[Sc diur, vesp]
+0.8 +0.2 96 -1 -1 1014.2 983.8
21 20.09 штиль 0 50 км 8/8 600 м
[Sc]
+0.4 0.0 97 -1 -1 1014.6 984.2
00 21.09 штиль 0 50 км 8/8 600 м
[Sc]
+0.4 0.0 97 -1 -1 1014.6 984.2
03 21.09 СВ 1 50 км туман на расстоянии 9/8 600 м
[Sc As op]
+0.8 +0.5 98 -1 -1 1014.2 983.8 -1.6
06 21.09 В 1 50 км 6/4 600 м
[Cu med, cong Ci fib]
+7.7 +3.3 74 +7 +10 1011.9 982.4
09 21.09 Ю 4
{11}
50 км 10/8 600 м
[Cu med, cong Ac trans]
+8.9 +3.3 68
12 21.09 Ю 4 50 км {дождь} 9/3 600 м
[Sc As op]
+9.5 +3.4 66 +7 +7 1007.4 978.1

 

Местоположение метеостанции Кын (Пермский край, Россия): широта 57.83 долгота 58.65 высота над уровнем моря 245 м.

В архиве по умолчанию представлена погода в Кыне за последнюю неделю. Архивные данные за месяц целиком и за предыдущие месяцы, начиная с января 2011 года, Вы можете получить, выбрав интересующий диапазон дат из раскрывающегося списка и нажав кнопку "Ввод!".


*Определитесь, кто Вы:
робот инопланетянин человек

Внимание! Время в таблицах - всемирное. Для получения местного времени необходимо прибавить поправку, которая равна 5 ч.

Смотрите также архив погоды в соседних городах и на ближайших метеорологических станциях:

Погода в Висиме (Свердловская область, Россия) (55 км)
Погода в Шамарах (Свердловская область, Россия) (59 км)
Погода в Лысьве (Пермский край, Россия) (61 км)
Погода в Бисере (Пермский край, Россия) (78 км)
Погода в Нижнем Тагиле (Свердловская область, Россия) (84 км)
Погода в Кушве (Свердловская область, Россия) (85 км)
Погода в Невьянске (Свердловская область, Россия) (102 км)
Погода в Качканаре (Свердловская область, Россия) (108 км)
Погода в Бисерти (Свердловская область, Россия) (109 км)
Погода в Кунгуре (Пермский край, Россия) (112 км)

Пояснения к столбцам:

Ветер - указаны скорость ветра в м/с - средняя за 10 мин, порывы в срок и между сроками (в фигурных скобках) и направление, откуда дует ветер: С - северный, СВ - северо-восточный, В - восточный, ЮВ - юго-восточный, Ю - южный, ЮЗ - юго-западный, З - западный, СЗ - северо-западный.
Видимость - горизонтальная дальность видимости в метрах или километрах. При видимости от 1 до 10 км при отсутствии осадков обычно наблюдается дымка, при ухудшении видимости до 1 км и менее - туман. В сухую погоду видимость может ухудшаться дымом, пылью или мглою.
Явления - указаны атмосферные явления, наблюдавшиеся в срок или в последний час перед сроком; фигурными скобками обозначены явления, наблюдавшиеся между сроками (за 1-3 часа до срока); квадратными скобками обозначены град или гололедные отложения с указанием их диаметра в мм.
Облачность - указаны через наклонную черту общая и нижняя облачность в баллах и высота нижней границы облаков в метрах; квадратными скобками обозначены формы облаков: Ci - перистые, Cs - перисто-слоистые, Cc - перисто-кучевые, Ac - высококучевые, As - высокослоистые, Sc - слоисто-кучевые, Ns - слоисто-дождевые, Cu - кучевые, Cb - кучево-дождевые. Подробнее классификацию облаков см. в Атласе облаков (PDF).
T - Температура воздуха - температура, измеренная на высоте 2 м над землей.
Td - Температура точки росы - температура, при понижении до которой содержащийся в воздухе водяной пар достигнет насыщения.
f - Относительная влажность воздуха - влажноcть воздуха, измеренная на высоте 2 м над землей.
Te - Эффективная температура - температура, которую ощущает одетый по сезону человек в тени. Характеристика душности погоды. При расчете учитывается влияние влажности воздуха и скорости ветра на теплоощущения человека.
Tes - Эффективная температура на солнце - температура, которую ощущает человек, с поправкой на солнечный нагрев. Характеристика знойности погоды. Зависит от высоты солнца над горизонтом, облачности и скорости ветра. Ночью, в пасмурную погоду, а также при ветре 12 м/с и более поправка равна нулю.
P - Атмосферное давление - приведенное к уровню моря атмосферное давление.
Po - Атмосферное давление - измеренное на уровне метеостанции атмосферное давление.
Tmin - Минимальная температура - минимум температуры воздуха на высоте 2 м над землей.
Tmax - Максимальная температура - максимум температуры воздуха на высоте 2 м над землей.
R - Количество осадков - Количество выпавших осадков за период времени, мм. При наведении курсора мыши на число - период времени, за который выпало указанное количество осадков.
R24 - Количество осадков - Количество выпавших осадков за 24 часа, мм.
S - Снежный покров - Высота снежного покрова, см. При наведении курсора мыши на число - состояние снежного покрова и степень покрытия местности в баллах.